Location: Newark
(39.9581°N, 97.2014°W)
Time: 13:06:32
(UTC+00:00)

Tiros 1 despin weight - All Passes

Search period start: 17 February 2020 00:00
Search period end: 27 February 2020 00:00
Orbit: 594 x 642 km, 48.2° (Epoch: 16 February)

Date Brightness Start Highest point End Pass type
(mag) Time Alt. Az. Time Alt. Az. Time Alt. Az.
17 Feb - 07:14:38 10° S 07:17:27 17° SE 07:20:17 10° E night (unlit)
17 Feb - 08:54:05 10° WSW 08:58:31 88° SE 09:02:56 10° ENE night (unlit)
17 Feb - 10:36:25 10° WNW 10:40:26 33° NNW 10:44:26 10° NE visible
17 Feb - 12:18:55 10° NW 12:22:49 29° N 12:26:43 10° ENE visible
17 Feb - 14:00:29 10° NW 14:04:54 66° NNE 14:09:21 10° ESE daylight
17 Feb - 15:42:28 10° W 15:46:11 26° SW 15:49:56 10° SSE daylight
18 Feb - 07:29:45 10° SSW 07:33:43 32° SE 07:37:40 10° ENE night (unlit)
18 Feb - 09:10:46 10° WSW 09:15:07 56° NNW 09:19:28 10° NE visible
18 Feb - 10:53:27 10° WNW 10:57:17 28° N 11:01:08 10° NE visible
18 Feb - 12:35:34 10° NW 12:39:39 36° NNE 12:43:46 10° E visible
18 Feb - 14:17:03 10° WNW 14:21:27 73° SW 14:25:54 10° SE daylight
18 Feb - 16:00:19 10° WSW 16:02:25 13° SW 16:04:30 10° SSW daylight
19 Feb - 06:08:10 10° SE 06:09:14 11° SE 06:10:19 10° ESE night (unlit)
19 Feb - 07:45:43 10° SW 07:50:07 63° SE 07:54:29 10° ENE night (unlit)
19 Feb - 09:27:42 10° W 09:31:50 38° NNW 09:35:59 10° NE visible
19 Feb - 11:10:22 10° WNW 11:14:11 28° N 11:18:00 10° ENE visible
19 Feb - 12:52:05 10° NW 12:56:24 50° NNE 13:00:44 10° E daylight
19 Feb - 14:33:46 10° WNW 14:37:53 38° SW 14:42:01 10° SSE daylight
20 Feb - 06:21:58 10° S 06:25:26 22° SE 06:28:53 10° E night (unlit)
20 Feb - 08:02:12 10° WSW 08:06:38 74° NNW 08:11:03 10° ENE night (unlit)
20 Feb - 09:44:44 10° WNW 09:48:40 30° N 09:52:35 10° NE visible
20 Feb - 11:27:06 10° NW 11:31:03 31° N 11:35:01 10° ENE visible
20 Feb - 13:08:36 10° WNW 13:13:02 82° NNE 13:17:30 10° ESE daylight
20 Feb - 14:50:57 10° W 14:54:11 20° SW 14:57:24 10° S daylight
21 Feb - 06:37:31 10° SSW 06:41:45 43° SE 06:45:57 10° ENE night (unlit)
21 Feb - 08:19:00 10° W 08:23:17 47° NNW 08:27:34 10° NE night (unlit)
21 Feb - 10:01:44 10° WNW 10:05:33 27° N 10:09:22 10° ENE visible
21 Feb - 11:43:41 10° NW 11:47:52 40° NNE 11:52:03 10° E visible
21 Feb - 13:25:12 10° WNW 13:29:32 56° SW 13:33:53 10° SE daylight
22 Feb - 05:14:37 10° SSE 05:17:11 15° SE 05:19:44 10° E night (unlit)
22 Feb - 06:53:44 10° SW 06:58:12 81° SSE 07:02:37 10° ENE night (unlit)
22 Feb - 08:36:00 10° W 08:40:03 34° NNW 08:44:06 10° NE night (unlit)
22 Feb - 10:18:34 10° NW 10:22:26 29° N 10:26:18 10° ENE visible
22 Feb - 12:00:11 10° NW 12:04:33 61° NNE 12:08:57 10° ESE visible
22 Feb - 13:42:05 10° WNW 13:45:54 29° SW 13:49:44 10° SSE daylight
23 Feb - 05:29:31 10° SSW 05:33:25 30° SE 05:37:17 10° ENE night (unlit)
23 Feb - 07:10:22 10° WSW 07:14:46 60° NNW 07:19:10 10° NE night (unlit)
23 Feb - 08:53:02 10° WNW 08:56:54 29° N 09:00:46 10° NE visible
23 Feb - 10:35:14 10° NW 10:39:17 34° NNE 10:43:20 10° E visible
23 Feb - 12:16:43 10° WNW 12:21:09 80° SSW 12:25:34 10° SE visible
23 Feb - 13:59:41 10° W 14:02:08 15° SW 14:04:35 10° SSW daylight
24 Feb - 05:45:24 10° SW 05:49:48 57° SE 05:54:09 10° ENE night (unlit)
24 Feb - 07:27:16 10° W 07:31:29 40° NNW 07:35:40 10° NE night (unlit)
24 Feb - 09:09:58 10° WNW 09:13:48 28° N 09:17:37 10° ENE visible
24 Feb - 10:51:47 10° NW 10:56:04 47° NNE 11:00:20 10° E visible
24 Feb - 12:33:25 10° WNW 12:37:35 42° SW 12:41:46 10° SSE visible
25 Feb - 04:21:49 10° S 04:25:08 20° SE 04:28:26 10° E night (unlit)
25 Feb - 06:01:49 10° WSW 06:06:18 81° NNW 06:10:45 10° ENE night (unlit)
25 Feb - 07:44:18 10° WNW 07:48:17 31° N 07:52:15 10° NE night (unlit)
25 Feb - 09:26:45 10° NW 09:30:41 30° N 09:34:37 10° ENE visible
25 Feb - 11:08:17 10° WNW 11:12:42 75° NNE 11:17:07 10° ESE visible
25 Feb - 12:50:30 10° W 12:53:53 22° SW 12:57:17 10° S daylight
26 Feb - 04:37:14 10° SSW 04:41:26 39° SE 04:45:35 10° ENE night (unlit)
26 Feb - 06:18:34 10° W 06:22:56 50° NNW 06:27:16 10° NE night (unlit)
26 Feb - 08:01:19 10° WNW 08:05:10 28° N 08:08:59 10° ENE night (unlit)
26 Feb - 09:43:20 10° NW 09:47:30 38° NNE 09:51:39 10° E visible
26 Feb - 11:24:52 10° WNW 11:29:13 62° SW 11:33:35 10° SE visible
26 Feb - 13:09:19 10° WSW 13:10:04 10° SW 13:10:50 10° SW daylight
